Regional Weather Roundup
Issued by NWS

Home | Current Version | Previous Version | Graphics & Text | Print | Product List | Glossary On
Versions: 1 2 3 4 5 6 7 8 9 10 11 12 13 14 15 16 17 18 19 20 21 22 23 24 25 26 27 28 29 30 31 32 33 34 35 36 37 38 39 40 41 42 43 44 45 46 47 48 49 50
000
ASUS43 KIND 240959
RWRIN

WEATHER ROUNDUP FOR INDIANA
NATIONAL WEATHER SERVICE INDIANAPOLIS IN
500 AM EST FRI FEB 24 2017

NOTE: "FAIR" INDICATES FEW OR NO CLOUDS BELOW 12,000 FEET WITH NO
SIGNIFICANT WEATHER AND/OR OBSTRUCTIONS TO VISIBILITY.

* - STATION DOES NOT REPORT WEATHER SUCH AS PRECIPITATION OR FOG.

+ - STATION NOT QUALITY CONTROLLED BY THE NATIONAL WEATHER SERVICE.
    USE DATA WITH CAUTION...ESPECIALLY DEWPOINT AND RELATIVE
    HUMIDITY OBSERVATIONS.

INZ001>003-010>013-019-020-241100-
NORTHWEST INDIANA

CITY           SKY/WX    TMP DP  RH WIND       PRES   REMARKS
KNOX *+        CLEAR     55  39  54 S13       29.52F
MICHIGAN CITY+ CLOUDY    45  45 100 CALM      29.53F FOG
RENSSELAER +   PTCLDY    59  54  82 S14       29.53R

$$

LMZ046-743>745-241100-
SOUTHERN LAKE MICHIGAN

STATION/POSITION TIME  TEMP    WIND        PRES    WAVE
                       AIR SEA DIR/SP/G            HT
                 (UTC) (F)     (DEG/KT/KT) (MB)    (FT)
BURNS HARBOR     0940   41     100/  5/  7 1000.7F
MICHIGAN CITY    0930   39      20/  1/  2   N/A

$$

INZ004-005-014>016-021>024-241100-
NORTH CENTRAL INDIANA

CITY           SKY/WX    TMP DP  RH WIND       PRES   REMARKS
GOSHEN         PTCLDY    51  47  86 SE17      29.57F
SOUTH BEND     PTCLDY    50  50 100 E10       29.55R FOG

$$

INZ006>009-017-018-025>027-241100-
NORTHEAST INDIANA

CITY           SKY/WX    TMP DP  RH WIND       PRES   REMARKS
ANGOLA *+      CLOUDY    45  45 100 SE8       29.62F
FORT WAYNE     PTCLDY    48  46  93 E9        29.62F FOG
KENDALLVILLE + CLOUDY    46  46 100 SE7       29.62S FOG

$$

INZ028-029-035-036-043>045-051>053-241100-
WEST CENTRAL INDIANA

CITY           SKY/WX    TMP DP  RH WIND       PRES   REMARKS
LAFAYETTE      PTCLDY    59  54  83 SE9       29.54F
TERRE HAUTE    CLOUDY    63  54  72 S16G35    29.57S

$$

INZ030>032-037>040-046>048-054>057-064-065-241100-
CENTRAL INDIANA

CITY           SKY/WX    TMP DP  RH WIND       PRES   REMARKS
GREENWOOD *+   CLEAR     57  54  89 SE10      29.61F
INDIANAPOLIS   PTCLDY    59  53  80 SE10      29.59F
-EAGLE CREEK   CLEAR     58  53  84 SE6       29.58F
KOKOMO +       CLEAR     57  54  89 S15       29.59F
MT COMFORT *+  CLEAR     55  52  88 S12       29.61F
SHELBYVILLE    CLEAR     59  52  77 S14       29.62F

$$

INZ033-034-041-042-049-050-058-059-241100-
EAST CENTRAL INDIANA

CITY           SKY/WX    TMP DP  RH WIND       PRES   REMARKS
MUNCIE         CLEAR     60  53  77 S13       29.62F

$$

INZ060-061-067>069-081>083-085>088-241100-
SOUTHWEST INDIANA

CITY           SKY/WX    TMP DP  RH WIND       PRES   REMARKS
EVANSVILLE     MOCLDY    63  55  75 S12       29.62F
HUNTINGBURG *+ CLOUDY    63  55  75 S14       29.65F

$$

INZ062-063-066-070>080-084-089>092-241100-
SOUTH CENTRAL AND SOUTHEAST INDIANA

CITY           SKY/WX    TMP DP  RH WIND       PRES   REMARKS
BLOOMINGTON    PTCLDY    64  53  67 S13G25    29.61F
MADISON *+     PTCLDY    59  52  77 S6        29.71S
SEYMOUR +      PTCLDY    63  54  72 S13       29.66F

$$





USA.gov is the U.S. government's official web portal to all federal, state and local government web resources and services.